Flight Briefing for CPX772

Departure Arrival
Tallinn Airport (EETN)
Click to view FAA NOTAMS
Li├Ęge Airport (EBLG)
Click to view FAA NOTAMS
Departure Time Arrival Time
N/A N/A
Aircraft Distance
B767-300BDSF 856nm
Departure METAR Arrival METAR
EETN 250220Z 15004KT CAVOK 09/08 Q1004 EBLG 250220Z VRB02KT CAVOK 08/06 Q1017 NOSIG
Suggested Route
TLL Q11 PIMEX P739 KOLJA M864 BUMIL OSB


View recent IFR Routes data
Notes



Charts and Procedures

Charts for EETN
No chart available
Charts for EBLG
No chart available

Windy.com Weather Map